Regional Weather Roundup
Issued by NWS

Home | Current Version | Previous Version | Graphics & Text | Print | Product List | Glossary On
Versions: 1 2 3 4 5 6 7 8 9 10 11 12 13 14 15 16 17 18 19 20 21 22 23 24 25 26 27 28 29 30 31 32 33 34 35 36 37 38 39 40 41 42 43 44 45 46 47 48 49 50
302
ASUS45 KCYS 310810
RWRWY

WYOMING REGIONAL WEATHER ROUNDUP
NATIONAL WEATHER SERVICE CHEYENNE WY
200 AM MDT TUE MAY 31 2016

NOTE:  "FAIR" INDICATES FEW OR NO CLOUDS BELOW 12,000 FEET
WITH NO SIGNIFICANT WEATHER AND/OR OBSTRUCTIONS TO VISIBILITY.

WYZ001-310900-
YELLOWSTONE NATIONAL PARK

CITY           SKY/WX    TMP DP  RH WIND       PRES   REMARKS
LK YELLOWSTONE   N/A     29  23  78 CALM      30.25S
W YELLOWSTONE  NOT AVBL

$$
WYZ002>013-054>058-071-098>099-310900-
NORTHERN WYOMING

CITY           SKY/WX    TMP DP  RH WIND       PRES   REMARKS
JACKSON        FAIR      39  37  93 N10       30.17S WCI  32
CODY           FAIR      43  32  65 CALM      30.17F
GREYBULL       MOCLDY    50  34  54 W13       30.12F
WORLAND        CLOUDY    53  35  50 NW12      30.12F
SHERIDAN       FAIR      42  37  82 W9        30.09F
BUFFALO        FAIR      43  37  79 W5        30.11F
GILLETTE       FAIR      41  39  93 SW9       30.08F
HULETT         FAIR      43  34  70 SW7       30.07F
NEWCASTLE      FAIR      43  36  75 NW3       30.11S

$$
WYZ014>020-022>026-101>103-310900-
CENTRAL WYOMING

CITY           SKY/WX    TMP DP  RH WIND       PRES   REMARKS
BIG PINEY      MOCLDY    38  29  70 CALM      30.19S
PINEDALE       FAIR      36  32  87 CALM      30.19S
DUBOIS         CLOUDY    39  32  75 SW3       30.19R
LANDER         MOCLDY    48  37  65 CALM      30.14F
RIVERTON       FAIR      48  37  65 NE3       30.16F
CASPER         FAIR      39  34  82 NE5       30.15S
DOUGLAS          N/A    N/A N/A N/A MISG      30.15F

$$
WYZ021-027>030-104>119-310900-
SOUTHERN WYOMING

CITY           SKY/WX    TMP DP  RH WIND       PRES   REMARKS
EVANSTON       FAIR      49  37  63 SE5       30.18F
KEMMERER         N/A     39  30  70 NW8       30.20S WCI  34
FORT BRIDGER   SUNNY     43  32  65 W6        30.20F
ROCK SPRINGS   FAIR      43  38  82 E10       30.18S
DIXON          FAIR      41  35  77 N3        30.15S
RAWLINS        CLOUDY    46  39  76 NE9       30.18R
SARATOGA       FAIR      36  36 100 SW3       30.16S
LARAMIE        CLOUDY    43  40  89 E9        30.18S
CHEYENNE       CLOUDY    46  40  79 N14G22    30.15F
TORRINGTON     LGT RAIN  49  43  80 NW5       30.13S
PINE BLUFFS    CLOUDY    45  43  93 N14G20    30.13S

$$




USA.gov is the U.S. government's official web portal to all federal, state and local government web resources and services.